Showing default

IRIDE-MS2-HEO-11, 68983

Orbit data source: Space-Track

IRIDE-MS2-HEO-11, 68983 is an Italian payload satellite in SSO that was launched on Sun, 03 May 2026 UTC via an FALCON 9 launch vehicle from the Air Force Western Test Range (AFWTR). Payload-class satellites include a variety of spacecraft equipped with specific instruments for various scientific and technological missions. These include communications satellites like Starlink; space stations such as the ISS; scientific satellites like the Hubble; Earth observation satellites from companies like Planet Labs, Umbra, and HawkEye 360; GPS; miniature CubeSats for education and research; and military/defense satellites.

Loading next visibility...
Identifier
68983, 2026-100D
Orbit
SSO
Country
Flag of ITIT
Related business
Manufacturer
ArgoTec
Mission
Operational spacecraft
Bus & Motor
HAWK, Unknown motor
Mass
65 kg wet, 65 kg dry
Launch date (UTC)
2026-05-03 (1 month ago)
Launch vehicle
FALCON 9
Launch site
Air Force Western Test Range (AFWTR)
Object type
Payload
Rocket body
Debris
Shape & HBR
Unknown shape, 14.5 m
Radar Cross Section
Medium (>0.1 m² and <1 m²)

Expand to show TLE details & history
Last TLE update: 11 hours ago

TLE from 11 hours ago
0 IRIDE-MS2-HEO-11
1 68983U 26100D   26168.62276047  .00001136  00000-0  11940-3 0  9999
2 68983  97.7379  66.0545 0004868 126.0604 234.1066 14.91364261  6767
Epoch: 2026-06-17T14:56Z
TLE epoch observation values (Epoch: 2026-06-17T14:56:46.504Z)
Latitude
-0.00005°
Longitude
-64.01705°
Altitude
598.714 km
Speed
7.559 km/s
True Right ascension
04h 24m 13s
True Declination
0° 00' 00"
Sunlit
Object was in daylight at epoch
Visualization orbit readout
Latitude
Unknown
Longitude
Unknown
Altitude
Unknown
Speed
Unknown
Apparent Right ascension
Unknown
Apparent Declination
Unknown
Sunlit
N/A
Visualization observer readout
Local Sidereal Time
12:52:11
Azimuth
Unknown
Elevation
Unknown
Doppler factor
Unknown
Orbital elements
Apogee altitude
594.092 km
Perigee altitude
587.307 km
Semi-major axis
6,968.836 km
Eccentricity
0.00049
Inclination
97.7379°
RAAN
66.0545°
Arg. of periapsis
126.0604°
True anomaly
234.06143°
Mean anomaly
234.1066°
Eccentric anomaly
234.08401°
Mean motion
3.73081 °/min
Orbital period
96.49 mins
BSTAR
0.0001194
Loading maneuver chart data...
Computing Atmospheric mass density...
Loading historical data...
Loading historical data...
Loading historical data...
Loading historical data...
Loading historical data...
Loading historical data...
Loading historical data...

Documentation

Showing up to 5 results
|